Temp
-5 -5 -6 -7 -7 -9 -8 -7 -7 -8 -6 -7 -7 -7 -7 -6 -6 -6 -6 -6 -6 -6 -6 -6 -6 -6 -7 -7 -7 -7 -7 -7 -8 -8 -8 -8 -8 -7 -7 -8 -7 -7 -7 -7
-5 -6 -6 -7 -9 -8 -7 -8 -8 -8 -7 -7 -7 -7 -7 -6 -6 -6 -6 -6 -6 -6 -6 -6 -6 -6 -7 -7 -7 -7 -7 -7 -7 -7 -7 -8 -8 -8 -8 -8 -7 -7 -7 -7
-5 -6 -6 -6 -7 -7 -7 -9 -8 -9 -7 -7 -7 -7 -7 -7 -6 -6 -6 -6 -6 -6 -6 -6 -6 -6 -7 -7 -7 -7 -7 -7 -7 -7 -7 -8 -8 -8 -8 -7 -7 -7 -7 -7
-6 -6 -6 -7 -7 -8 -8 -9 -9 -8 -7 -9 -8 -8 -7 -8 -6 -6 -6 -6 -6 -7 -6 -7 -7 -6 -7 -7 -7 -7 -7 -7 -7 -7 -7 -7 -7 -7 -7 -7 -7 -7 -7 -7
-6 -6 -6 -6 -7 -8 -9 -10 -10 -10 -8 -9 -9 -8 -7 -8 -8 -6 -7 -7 -7 -7 -7 -7 -7 -7 -7 -7 -7 -7 -7 -7 -7 -7 -7 -7 -7 -8 -7 -7 -7 -7 -7 -7
-7 -6 -6 -7 -7 -8 -8 -10 -10 -10 -10 -9 -9 -8 -8 -7 -8 -8 -9 -7 -8 -7 -7 -7 -8 -7 -8 -7 -7 -7 -7 -7 -7 -7 -7 -7 -7 -8 -7 -7 -7 -7 -7 -7
-7 -7 -7 -7 -7 -8 -8 -9 -10 -9 -9 -8 -8 -8 -8 -8 -8 -8 -10 -9 -8 -8 -7 -7 -7 -8 -7 -8 -8 -7 -7 -7 -7 -7 -7 -7 -7 -7 -7 -7 -7 -7 -7 -7
-8 -8 -7 -7 -7 -8 -8 -9 -9 -8 -8 -7 -8 -8 -8 -8 -9 -9 -9 -9 -8 -8 -8 -8 -8 -8 -8 -8 -7 -7 -7 -7 -7 -7 -7 -7 -7 -7 -7 -7 -7 -7 -7 -7
-10 -10 -10 -7 -7 -8 -10 -9 -9 -9 -9 -8 -8 -9 -9 -8 -8 -8 -10 -9 -8 -8 -8 -8 -7 -7 -7 -7 -7 -7 -7 -7 -7 -7 -7 -7 -7 -7 -7 -7 -7 -7 -7 -7
-9 -10 -11 -9 -8 -8 -9 -10 -10 -9 -9 -9 -8 -9 -9 -10 -8 -10 -10 -10 -9 -9 -9 -8 -8 -8 -8 -8 -7 -7 -7 -7 -7 -7 -7 -7 -7 -7 -7 -7 -7 -8 -7 -7
-9 -10 -10 -11 -9 -10 -9 -9 -10 -9 -9 -8 -8 -8 -8 -8 -9 -10 -10 -9 -9 -9 -9 -8 -8 -8 -8 -8 -8 -8 -8 -7 -7 -7 -7 -7 -7 -7 -7 -7 -7 -7 -7 -7
-10 -11 -11 -10 -11 -10 -10 -10 -10 -9 -9 -9 -9 -9 -10 -10 -10 -10 -7 -8 -9 -8 -8 -8 -8 -8 -8 -8 -8 -8 -8 -8 -8 -7 -7 -7 -7 -7 -7 -7 -7 -7 -7 -7
-12 -10 -11 -11 -10 -11 -11 -10 -10 -10 -9 -10 -10 -8 -9 -10 -9 -10 -8 -8 -8 -8 -8 -8 -8 -8 -8 -8 -8 -8 -8 -8 -7 -7 -7 -8 -7 -7 -7 -7 -7 -7 -7 -7
-11 -11 -11 -10 -10 -10 -11 -10 -10 -10 -10 -9 -9 -10 -10 -9 -10 -11 -11 -8 -8 -8 -8 -8 -8 -8 -8 -8 -8 -8 -8 -8 -8 -8 -7 -7 -7 -7 -7 -7 -6 -7 -7 -7
-12 -11 -12 -11 -11 -10 -10 -11 -11 -10 -10 -10 -10 -10 -10 -10 -9 -11 -11 -8 -8 -8 -8 -8 -8 -8 -8 -7 -7 -7 -8 -8 -8 -8 -8 -8 -7 -7 -6 -6 -7 -6 -7 -7
-12 -12 -12 -12 -11 -11 -10 -10 -10 -10 -10 -10 -10 -10 -10 -10 -11 -11 -11 -9 -9 -8 -8 -8 -8 -8 -7 -7 -7 -7 -8 -8 -8 -8 -8 -8 -7 -7 -7 -7 -7 -7 -7 -6
-12 -13 -12 -12 -11 -10 -11 -10 -10 -11 -11 -11 -10 -10 -10 -11 -10 -11 -9 -9 -8 -8 -8 -8 -8 -8 -8 -8 -8 -8 -8 -8 -8 -8 -8 -8 -8 -8 -7 -7 -7 -7 -7 -7
-13 -13 -12 -12 -11 -11 -11 -11 -11 -11 -11 -11 -11 -11 -11 -11 -10 -10 -9 -8 -8 -8 -8 -7 -7 -7 -8 -8 -8 -8 -8 -8 -8 -8 -8 -8 -8 -8 -7 -7 -7 -7 -7 -7
-12 -12 -13 -12 -12 -11 -11 -10 -10 -11 -11 -12 -12 -10 -10 -9 -9 -9 -9 -9 -7 -7 -7 -7 -7 -7 -7 -8 -8 -8 -8 -8 -8 -8 -8 -8 -8 -8 -8 -7 -7 -7 -7 -7
-13 -13 -12 -13 -12 -11 -10 -11 -11 -11 -10 -10 -10 -10 -9 -9 -9 -9 -8 -8 -8 -7 -7 -7 -7 -7 -7 -8 -8 -8 -8 -8 -8 -8 -8 -8 -8 -8 -8 -8 -7 -7 -7 -7
-14 -12 -13 -12 -11 -10 -11 -10 -12 -11 -11 -11 -10 -10 -9 -9 -9 -8 -8 -8 -8 -7 -7 -7 -7 -7 -8 -8 -8 -8 -8 -8 -8 -8 -8 -8 -7 -7 -7 -7 -7 -7 -7 -6
-13 -13 -13 -12 -12 -12 -11 -11 -12 -12 -11 -11 -10 -10 -10 -9 -9 -9 -8 -8 -7 -7 -7 -7 -7 -7 -8 -8 -8 -8 -8 -8 -9 -9 -9 -8 -8 -7 -7 -7 -6 -7 -6 -6
-12 -12 -13 -12 -12 -12 -12 -12 -12 -11 -11 -11 -10 -10 -10 -10 -9 -9 -8 -8 -8 -8 -7 -8 -8 -7 -7 -7 -8 -8 -8 -8 -8 -9 -9 -9 -8 -8 -7 -7 -7 -6 -6 -6
-12 -13 -13 -13 -13 -12 -11 -12 -12 -11 -11 -11 -11 -10 -10 -9 -9 -9 -9 -8 -8 -8 -8 -8 -8 -8 -7 -7 -7 -8 -8 -9 -9 -9 -9 -9 -8 -8 -8 -8 -7 -7 -6 -6
-12 -13 -13 -12 -13 -12 -12 -12 -12 -12 -11 -11 -11 -11 -10 -9 -9 -9 -9 -8 -8 -8 -8 -8 -8 -8 -8 -7 -7 -8 -8 -8 -9 -9 -9 -9 -9 -8 -8 -8 -8 -7 -7 -7
-13 -13 -12 -11 -12 -12 -12 -12 -12 -12 -12 -12 -12 -11 -11 -10 -9 -9 -9 -9 -9 -9 -9 -8 -8 -8 -8 -8 -8 -9 -9 -9 -10 -10 -10 -10 -10 -10 -9 -8 -9 -9 -8 -8
Height
5876 5876 5878 5880 5883 5887 5888 5887 5887 5885 5885 5886 5885 5885 5884 5883 5883 5884 5883 5882 5883 5884 5884 5884 5884 5884 5884 5885 5886 5887 5888 5889 5891 5893 5896 5897 5900 5903 5906 5908 5910 5912 5914 5916
5874 5874 5874 5876 5878 5881 5882 5886 5885 5883 5883 5885 5884 5884 5882 5881 5881 5881 5882 5883 5883 5882 5883 5883 5884 5884 5885 5885 5886 5887 5888 5890 5891 5894 5896 5898 5900 5903 5906 5908 5911 5913 5916 5918
5870 5871 5871 5872 5874 5876 5879 5883 5887 5885 5881 5883 5883 5883 5882 5877 5879 5879 5879 5882 5882 5882 5882 5883 5883 5884 5885 5886 5887 5887 5888 5890 5892 5893 5895 5897 5899 5902 5905 5909 5912 5914 5916 5919
5867 5866 5868 5869 5871 5873 5875 5877 5880 5877 5879 5884 5882 5882 5871 5879 5876 5877 5878 5879 5881 5882 5881 5882 5883 5883 5885 5887 5888 5888 5889 5890 5891 5894 5895 5896 5899 5902 5905 5908 5911 5914 5915 5918
5863 5862 5863 5865 5867 5868 5872 5876 5879 5876 5876 5878 5881 5881 5876 5877 5875 5874 5875 5876 5879 5879 5880 5881 5882 5883 5885 5886 5888 5889 5889 5890 5892 5893 5895 5897 5899 5901 5904 5906 5909 5912 5914 5917
5857 5857 5859 5861 5862 5864 5866 5868 5870 5872 5876 5879 5881 5881 5878 5874 5875 5876 5874 5874 5876 5877 5880 5881 5882 5883 5884 5885 5886 5888 5889 5890 5891 5893 5894 5896 5898 5899 5901 5903 5907 5910 5913 5915
5852 5853 5854 5856 5858 5860 5861 5864 5869 5875 5877 5879 5874 5877 5878 5874 5873 5875 5875 5874 5875 5876 5876 5877 5879 5881 5882 5882 5883 5886 5888 5888 5890 5891 5893 5895 5897 5898 5900 5902 5905 5908 5910 5913
5847 5849 5850 5851 5854 5856 5857 5861 5867 5872 5876 5878 5870 5875 5876 5871 5870 5869 5870 5872 5873 5875 5875 5875 5877 5878 5880 5880 5881 5883 5885 5887 5888 5890 5891 5893 5895 5897 5899 5901 5903 5905 5907 5911
5846 5846 5844 5845 5848 5851 5855 5854 5864 5869 5865 5869 5862 5869 5868 5868 5869 5868 5870 5869 5871 5872 5874 5875 5875 5876 5876 5877 5878 5880 5882 5884 5886 5888 5890 5891 5893 5894 5896 5898 5901 5903 5906 5909
5837 5839 5841 5840 5842 5846 5849 5857 5857 5862 5865 5864 5866 5864 5869 5863 5865 5867 5866 5867 5868 5870 5872 5873 5873 5874 5875 5876 5877 5878 5879 5881 5882 5884 5886 5888 5890 5891 5892 5894 5897 5899 5902 5906
5831 5834 5838 5837 5836 5842 5844 5846 5851 5861 5864 5866 5867 5868 5864 5860 5862 5864 5865 5869 5865 5867 5869 5869 5870 5871 5872 5873 5875 5876 5877 5879 5880 5881 5882 5884 5886 5887 5889 5891 5892 5894 5897 5899
5825 5828 5831 5835 5835 5836 5843 5844 5850 5854 5857 5859 5859 5861 5857 5857 5859 5860 5861 5859 5862 5865 5866 5866 5867 5867 5868 5870 5872 5873 5874 5875 5876 5877 5878 5879 5881 5883 5885 5887 5888 5891 5892 5894
5820 5820 5827 5831 5835 5834 5835 5840 5844 5850 5854 5855 5854 5860 5852 5853 5856 5857 5857 5857 5859 5861 5863 5864 5864 5865 5865 5865 5866 5868 5870 5871 5872 5872 5873 5873 5875 5878 5880 5882 5884 5886 5888 5889
5810 5815 5819 5828 5833 5833 5829 5830 5837 5844 5845 5850 5853 5848 5847 5846 5849 5849 5851 5850 5854 5856 5858 5860 5861 5862 5862 5862 5863 5864 5865 5866 5867 5868 5868 5869 5870 5871 5872 5874 5877 5879 5882 5884
5803 5806 5813 5817 5820 5820 5827 5825 5829 5835 5841 5842 5842 5848 5849 5843 5842 5845 5843 5845 5848 5850 5851 5853 5855 5856 5858 5858 5858 5859 5859 5859 5860 5861 5862 5864 5865 5866 5865 5868 5870 5872 5874 5877
5796 5798 5805 5810 5815 5816 5817 5824 5827 5830 5833 5836 5837 5835 5833 5840 5840 5841 5840 5842 5843 5845 5846 5847 5849 5850 5851 5852 5853 5853 5852 5852 5852 5853 5855 5857 5858 5859 5859 5859 5862 5865 5867 5869
5787 5793 5800 5803 5809 5811 5814 5819 5821 5824 5826 5829 5832 5835 5833 5832 5834 5836 5840 5837 5838 5840 5842 5843 5844 5844 5844 5844 5845 5845 5845 5844 5844 5844 5845 5847 5849 5851 5852 5853 5852 5853 5858 5861
5780 5786 5791 5797 5804 5795 5809 5814 5816 5818 5820 5822 5823 5823 5822 5823 5826 5828 5830 5831 5833 5835 5837 5838 5838 5838 5838 5836 5836 5836 5836 5836 5836 5836 5837 5838 5840 5843 5844 5846 5846 5846 5849 5852
5770 5774 5782 5788 5791 5791 5803 5801 5806 5808 5811 5813 5813 5814 5815 5816 5819 5822 5824 5826 5828 5828 5830 5831 5831 5831 5831 5830 5829 5829 5828 5828 5827 5828 5828 5830 5830 5832 5834 5836 5838 5839 5840 5843
5759 5763 5770 5779 5782 5785 5786 5795 5798 5800 5802 5804 5806 5807 5808 5811 5813 5814 5818 5820 5820 5821 5822 5823 5824 5824 5824 5823 5822 5821 5821 5820 5821 5820 5820 5820 5821 5822 5824 5826 5828 5829 5830 5833
5747 5751 5758 5771 5772 5770 5784 5780 5789 5796 5801 5798 5799 5801 5802 5804 5805 5808 5811 5813 5813 5814 5815 5815 5816 5816 5815 5815 5815 5813 5812 5813 5812 5812 5812 5812 5812 5813 5814 5815 5816 5818 5820 5821
5741 5745 5749 5762 5769 5777 5766 5777 5788 5787 5789 5791 5793 5795 5796 5797 5801 5802 5804 5805 5806 5807 5809 5807 5808 5808 5806 5806 5806 5805 5805 5804 5803 5803 5802 5802 5801 5802 5802 5803 5803 5805 5807 5809
5730 5738 5748 5753 5762 5768 5766 5774 5779 5781 5783 5785 5788 5789 5790 5792 5794 5795 5796 5798 5799 5800 5801 5801 5800 5800 5799 5798 5796 5796 5796 5795 5795 5794 5794 5792 5791 5790 5791 5791 5791 5792 5793 5796
5716 5727 5736 5741 5750 5754 5759 5765 5772 5774 5777 5779 5781 5783 5785 5786 5787 5789 5790 5791 5792 5793 5793 5793 5793 5792 5791 5790 5789 5787 5786 5786 5787 5786 5784 5782 5781 5779 5780 5779 5777 5777 5779 5782
5713 5717 5727 5734 5742 5749 5756 5756 5764 5768 5771 5773 5775 5777 5778 5779 5781 5781 5783 5784 5785 5786 5787 5787 5786 5785 5785 5784 5783 5781 5779 5779 5778 5778 5777 5775 5772 5767 5766 5766 5763 5762 5764 5767
5709 5709 5719 5725 5735 5740 5744 5751 5757 5762 5764 5765 5767 5770 5771 5772 5774 5775 5776 5778 5779 5780 5780 5780 5780 5779 5778 5778 5777 5775 5774 5774 5773 5772 5770 5770 5765 5759 5754 5751 5751 5748 5751 5753
Wind_Speed
9 10 12 15 16 19 22 13 19 14 16 14 14 15 17 12 10 11 8 5 8 7 8 7 6 4 3 2 1 3 6 6 15 15 18 19 19 19 17 16 16 16 17 19
12 10 14 18 20 25 26 22 15 22 19 14 16 14 15 18 16 13 12 9 9 9 9 10 8 6 4 2 1 3 5 6 11 16 16 17 18 20 18 18 19 18 18 19
15 15 16 17 19 20 21 14 16 17 19 14 12 10 12 17 18 16 15 13 9 10 10 10 10 8 7 4 3 4 5 6 10 12 14 20 22 22 22 21 20 20 19 20
17 18 15 16 15 17 18 17 20 20 17 5 13 14 11 9 17 15 14 11 11 12 9 11 12 12 10 7 6 5 6 7 10 12 10 15 21 21 21 22 21 22 21 21
18 19 19 16 15 18 17 17 15 22 20 15 13 11 22 18 23 17 13 11 11 12 10 10 14 12 12 10 8 7 7 8 10 12 13 15 19 21 21 24 24 26 23 23
20 21 18 15 17 18 19 23 23 18 13 15 14 9 17 17 12 13 11 11 11 11 10 11 16 13 11 12 13 11 10 8 9 11 13 16 16 18 21 24 24 26 27 25
20 20 18 18 18 19 23 21 16 14 16 15 21 20 17 20 22 22 11 14 12 9 8 10 12 13 13 13 15 15 13 12 9 8 12 13 16 16 17 20 23 24 29 27
18 21 19 20 19 18 22 21 18 16 9 14 19 19 15 22 19 16 19 18 14 10 7 6 9 11 11 12 12 15 15 14 12 11 10 11 13 14 17 15 20 24 29 31
13 17 20 20 21 23 18 24 22 20 18 18 12 16 19 29 23 17 13 20 15 13 7 6 6 8 8 10 10 13 15 15 14 14 13 12 13 13 14 15 17 21 23 29
19 20 16 22 21 24 24 17 22 23 18 19 23 14 12 17 15 14 18 21 18 17 13 10 9 8 8 7 10 16 16 17 17 15 15 15 14 14 14 14 17 19 23 27
21 20 16 21 24 22 25 25 23 19 22 21 20 16 23 30 19 19 16 19 19 18 16 14 14 13 11 10 9 10 13 17 17 18 17 17 17 17 16 16 17 20 23 25
21 17 17 21 21 20 19 19 18 24 22 19 21 16 9 16 17 16 21 22 20 18 18 18 16 17 17 15 15 14 14 13 17 19 21 20 19 18 21 20 20 22 23 24
19 22 19 18 20 22 27 25 21 19 17 19 19 15 28 27 27 23 21 25 21 20 21 22 21 20 21 22 21 19 19 18 20 21 19 20 25 24 24 26 24 23 24 25
29 21 22 20 19 19 23 27 25 25 25 20 21 24 22 24 24 30 26 23 25 27 27 26 24 23 25 27 28 28 28 27 25 23 23 23 22 25 26 25 26 27 27 27
33 31 26 27 26 24 19 21 25 24 24 19 20 20 21 24 22 18 25 24 25 22 22 21 21 22 23 25 27 28 29 30 31 30 29 26 25 28 28 30 29 30 29 31
39 34 26 23 21 24 15 17 22 25 24 25 21 19 8 25 23 18 26 21 23 22 23 23 23 24 25 25 26 27 29 30 31 33 35 34 30 29 30 27 36 38 34 35
44 34 29 27 24 23 26 20 20 21 21 23 22 22 16 25 34 27 22 25 23 22 23 23 25 26 27 29 30 29 30 31 33 34 36 37 36 33 31 29 28 38 36 36
45 42 38 28 28 34 25 23 25 23 19 18 22 29 33 38 26 28 27 25 22 24 25 24 24 25 26 30 30 30 32 33 34 35 36 37 39 38 37 33 31 32 38 39
52 50 44 37 35 29 24 35 27 22 25 22 23 23 30 27 26 29 29 30 24 22 20 22 23 26 29 30 31 32 32 31 33 34 36 37 39 42 40 39 37 35 37 39
52 56 49 39 42 29 25 16 26 31 26 23 20 20 22 22 24 28 26 24 22 23 22 24 26 29 29 29 30 31 31 33 32 34 36 36 38 41 44 44 43 43 42 38
50 56 54 47 33 19 24 37 19 22 18 17 17 18 20 21 26 24 23 23 24 23 24 28 30 30 30 28 28 31 34 33 34 34 35 37 38 40 42 46 48 48 45 46
47 52 51 41 40 29 29 27 13 22 18 16 14 14 17 21 20 23 24 24 25 25 26 30 30 28 29 31 33 34 31 31 32 36 37 37 40 43 44 45 46 48 49 47
36 49 43 46 42 32 46 22 29 22 18 16 17 15 13 15 19 23 25 26 27 27 29 28 26 24 25 29 33 32 35 36 35 34 33 35 38 38 38 42 49 49 50 50
24 36 50 49 46 46 23 25 30 29 26 24 25 23 21 19 19 22 24 25 26 28 27 24 23 23 25 25 24 25 30 33 31 28 32 37 37 38 39 40 42 43 51 52
50 48 47 52 50 49 44 34 31 28 29 27 26 26 26 24 22 21 23 24 25 24 21 20 20 19 18 19 20 22 24 24 26 28 31 32 34 40 41 37 40 42 43 50
38 22 33 47 49 46 41 30 39 35 32 26 24 24 25 25 22 22 24 24 23 20 17 20 20 19 19 18 16 17 20 21 22 23 26 27 33 36 38 32 30 36 35 41
Wind_Direction
278 249 234 223 218 205 215 234 246 247 249 261 265 274 277 283 290 281 284 275 223 233 227 235 228 199 157 123 187 201 201 216 213 208 198 199 200 200 195 188 180 181 178 178
272 259 233 224 223 215 229 234 239 247 255 260 267 276 283 280 277 273 254 254 244 226 220 229 237 228 195 185 224 230 218 226 207 206 207 211 209 206 201 198 192 191 191 185
266 257 251 242 240 237 234 221 245 248 256 253 268 271 252 278 273 278 262 250 245 233 222 226 232 240 236 221 230 245 231 213 203 204 215 215 208 205 202 201 200 198 200 192
260 261 261 252 242 238 231 236 214 243 253 256 257 260 307 246 281 275 269 243 243 249 255 229 231 234 241 244 228 240 244 218 213 207 212 207 207 211 211 210 207 200 204 198
256 251 260 251 235 231 225 214 243 259 247 245 268 265 282 288 283 265 269 262 238 244 246 252 234 232 244 245 247 242 243 242 221 215 214 217 220 220 217 214 217 211 209 204
249 250 250 251 238 230 223 228 232 242 256 256 265 237 271 245 271 261 259 266 265 252 238 226 224 231 241 245 244 243 245 243 246 230 215 213 222 224 220 220 216 216 213 210
245 249 243 237 239 229 225 226 229 239 246 252 231 240 229 253 256 254 231 252 249 266 265 226 209 213 227 230 241 243 241 244 247 249 241 226 222 225 225 223 222 219 214 213
253 255 252 243 237 239 228 221 217 222 233 246 225 241 257 257 239 252 218 233 237 239 245 234 226 237 238 233 240 242 244 242 246 250 249 248 238 234 236 234 230 229 223 218
241 257 254 241 230 226 239 223 214 226 231 254 251 214 250 253 258 243 222 227 233 240 241 244 252 254 251 237 244 235 242 243 237 249 251 251 249 243 242 241 234 232 226 222
233 239 235 251 232 227 206 235 218 221 240 246 258 269 256 241 262 222 219 220 230 236 244 250 264 276 272 257 253 255 246 235 249 247 241 245 250 253 243 243 243 240 233 230
230 239 236 231 238 224 224 217 218 217 226 237 243 256 267 275 255 224 215 212 224 226 239 251 257 262 255 260 263 263 264 250 243 246 243 243 246 249 253 245 243 237 238 235
235 235 230 229 231 225 224 229 216 215 229 227 231 234 200 231 244 220 235 219 225 226 239 251 262 270 272 265 265 268 263 257 254 255 252 250 238 240 248 249 251 247 235 238
227 226 224 213 241 218 219 220 225 223 229 236 230 238 260 248 251 243 219 226 223 231 236 243 249 258 264 269 268 263 264 262 253 254 253 251 249 247 251 247 250 252 250 246
231 217 215 217 231 251 249 230 211 215 228 232 238 251 250 253 252 229 227 229 230 236 239 242 246 248 252 257 261 265 266 264 262 258 254 255 245 249 249 240 242 245 251 251
233 228 219 211 240 205 227 239 215 216 221 228 221 221 240 270 259 219 234 230 234 237 243 246 247 250 255 260 264 266 267 264 259 260 259 256 256 255 254 251 244 241 238 249
225 232 226 221 228 243 217 221 220 222 222 226 239 228 201 213 240 229 241 223 231 234 243 252 259 264 267 269 271 271 270 269 265 260 259 258 253 254 253 259 246 251 244 243
221 223 227 227 219 234 227 213 219 223 234 227 228 240 237 252 238 225 217 229 232 238 244 252 260 264 268 271 272 272 269 266 263 262 259 256 256 255 256 257 260 248 249 243
221 224 225 215 226 218 225 221 224 225 230 232 234 219 228 228 229 232 237 242 239 243 245 248 253 262 266 269 270 268 268 266 264 262 261 259 255 254 252 253 256 249 241 243
220 224 215 219 225 220 206 224 227 217 226 236 240 240 237 237 236 234 236 241 241 245 250 258 264 269 270 272 270 270 268 265 264 263 262 260 256 253 253 252 252 254 251 249
220 225 224 219 220 230 189 228 234 229 242 244 248 240 236 228 234 237 232 239 249 256 265 267 270 273 273 270 268 266 264 263 265 264 264 263 259 257 254 254 253 252 253 253
218 225 231 211 206 216 226 231 199 227 226 234 233 236 236 228 231 241 238 241 252 262 267 270 273 275 272 267 271 271 269 269 267 264 261 262 262 261 259 256 252 251 254 250
222 225 232 224 205 194 234 220 209 211 215 216 216 226 237 242 239 243 245 247 250 259 266 272 278 273 269 272 273 272 271 270 270 269 266 264 260 257 257 257 258 256 253 248
212 221 229 233 194 212 220 203 226 225 228 232 234 235 244 255 249 247 247 250 254 259 263 271 271 272 271 275 275 273 261 267 276 276 267 267 267 266 267 263 258 255 254 252
211 210 218 229 217 211 205 216 223 228 235 239 246 252 252 250 251 249 249 250 255 261 265 267 267 279 274 276 283 270 265 269 272 267 267 269 270 270 270 269 265 262 253 250
215 219 227 233 227 206 222 209 216 230 232 237 243 251 255 256 252 254 253 255 260 262 264 266 277 282 278 281 275 266 263 263 267 270 271 275 279 279 279 274 266 261 255 249
220 222 225 232 221 223 216 214 221 233 238 238 247 254 256 256 252 257 257 259 261 255 267 278 279 281 285 281 269 263 266 271 271 271 274 287 293 296 296 278 272 262 254 249